     27   20 13.91  +14 43.9    0.604   1.357   100.1/252   111.5   44.0   12.6   +66.4  328.7

     28   20 07.36  +14 12.9    0.604   1.374   100.9/252   113.9   42.4   12.6   +66.9  334.7

     29   20 00.79  +13 40.8    0.604   1.391   101.6/251   116.3   40.8   12.7   +67.2  340.9

     30   19 54.21  +13 07.6    0.605   1.408   102.1/251   118.7   39.2   12.7   +67.2  347.2

     31   19 47.63  +12 33.4    0.607   1.425   102.4/250   121.1   37.6   12.8   +66.9  353.5

June  1   19 41.06  +11 58.2    0.608   1.442   102.6/250   123.4   35.9   12.9   +66.5  359.6

                    m1 = 12.5 + 5 log △ +  9.0 log r

NAKANO

         **** Don't distribute anyone except personal use only ****

                (C) Copyright 2007 OAA/ComputingSection

write mail from CFAD0::NAKANO on 2007-04-20 01:21:51(JST).

 



*** I think some relative effects include in non-gravitational parameters ***



  96P/Machholz 1 

Epoch 2002 Jan. 6.0 TT = JDT 2452280.5  

T 2002 Jan. 8.62551 TT                                  Nakano

q   0.1241056            (2000.0)            P               Q

n   0.18843855     Peri.   14.58077     -0.20251472     -0.45937962

a   3.0131648      Node    94.60846     +0.78895127     -0.59971011

e   0.9588122      Incl.   60.18679     +0.58012385     +0.65522374

P   5.23

From 119 observations 1986-2002, mean residual 0".86.  Nongravitational

   parameters A1 = -0.02 +/- 0.01, A2 = -0.0002 +/- 0.0000.



NAKANO

         **** Don't distribute anyone except personal use only ****

                (C) Copyright 2002 OAA/ComputingSection

write mail from CFAD0::NAKANO on 2002-01-29 00:05:43(JST).

 



◎96P/Machholz 1の軌道と予報位置です



 1月14日早朝,上尾の門田健一氏は,この彗星の観測に成功しました.

氏によると,彗星は,高度5゜の超低空に位置し,やや集光した拡散像,

集光は鈍く,写りはよくなかったとのことです.彗星の CCD全光度は,

5.5等,コマの視直径 0'.9,北西の方向に淡い尾が見えているような気

がするとのこと.なお,軌道のA1,A2には,相対論による影響が入り込

んでいるものと思われます(正しい値ではない).



  96P/Machholz 1 

Epoch 2002 Jan. 6.0 TT = JDT 2452280.5  

T 2002 Jan. 8.62705 TT                                  Nakano

q   0.1241053            (2000.0)            P               Q

n   0.18843583     Peri.   14.58078     -0.20251448     -0.45937912

a   3.0131938      Node    94.60845     +0.78895125     -0.59971017

e   0.9588127      Incl.   60.18682     +0.58012396     +0.65522404

P   5.23

From 113 observations 1986-2002, mean residual 0".91.  Nongravitational

   parameters A1 = -0.02 +/- 0.01, A2 = -0.0001 +/- 0.0000.





 20h TT  R.A.(2000) Decl.    Delta   r      Mot./PA   Elong. Mag.  At Twilight

           h  m       。  ,                    ,     。    。    m1     h。    A 。

Jan. 10  19 07.94  -14 12.6  0.928  0.161  103.1/333    9.1   3.3   -9.7  280.6

     11  19 04.77  -12 40.5  0.969  0.191   67.6/337   11.2   4.3   -7.4  280.3

     12  19 02.98  -11 38.3  1.011  0.224   44.5/343   12.8   5.2   -5.7  280.3

     13  19 02.11  -10 55.7  1.051  0.258   29.9/353   14.1   6.0   -4.3  280.3

     14  19 01.87  -10 26.0  1.090  0.291   21.2/  8   15.0   6.8   -3.2  280.5

     15  19 02.08  -10 05.0  1.126  0.324   16.7/ 27   15.9   7.4   -2.3  280.8

     16  19 02.59  -09 50.1  1.161  0.355   15.1/ 46   16.6   7.9   -1.5  281.0

     17  19 03.32  -09 39.6  1.194  0.387   15.2/ 61   17.2   8.4   -0.8  281.3

     18  19 04.22  -09 32.2  1.226  0.417   15.8/ 71   17.8   8.9   -0.1  281.6

     19  19 05.23  -09 27.1  1.256  0.447   16.6/ 79   18.4   9.3   +0.5  282.0

     20  19 06.33  -09 23.8  1.284  0.476   17.3/ 83   18.9   9.7   +1.0  282.3

     21  19 07.50  -09 21.9  1.312  0.504   17.9/ 87   19.4  10.0   +1.5  282.6

     22  19 08.71  -09 20.9  1.338  0.532   18.4/ 89   19.9  10.3   +2.0  283.0

     23  19 09.95  -09 20.7  1.364  0.560   18.7/ 91   20.5  10.6   +2.5  283.3

     24  19 11.22  -09 21.2  1.388  0.586   19.0/ 93   21.0  10.9   +2.9  283.7

     25  19 12.50  -09 22.1  1.411  0.613   19.1/ 94   21.5  11.2   +3.4  284.0

     26  19 13.79  -09 23.3  1.434  0.638   19.2/ 95   22.0  11.4   +3.8  284.4

     27  19 15.08  -09 24.8  1.456  0.664   19.2/ 95   22.5  11.7   +4.2  284.7

     28  19 16.38  -09 26.6  1.477  0.689   19.2/ 96   23.1  11.9   +4.6  285.1

     29  19 17.67  -09 28.5  1.497  0.713   19.2/ 96   23.6  12.1   +5.0  285.4

     30  19 18.96  -09 30.5  1.516  0.737   19.1/ 96   24.1  12.3   +5.4  285.7

     31  19 20.24  -09 32.5  1.535  0.761   18.9/ 96   24.7  12.5   +5.8  286.1

Feb.  1  19 21.51  -09 34.7  1.553  0.784   18.8/ 97   25.3  12.7   +6.2  286.4

      2  19 22.77  -09 36.8  1.571  0.807   18.6/ 97   25.8  12.9   +6.6  286.8

      3  19 24.02  -09 39.0  1.587  0.830   18.4/ 97   26.4  13.0   +6.9  287.1

      4  19 25.26  -09 41.2  1.604  0.853   18.2/ 97   27.0  13.2   +7.3  287.4

      5  19 26.48  -09 43.3  1.619  0.875   18.0/ 97   27.6  13.3   +7.7  287.8

      6  19 27.69  -09 45.5  1.635  0.897   17.8/ 97   28.2  13.5   +8.0  288.1

      7  19 28.88  -09 47.6  1.649  0.918   17.5/ 97   28.8  13.6   +8.4  288.5

      8  19 30.06  -09 49.6  1.663  0.939   17.3/ 97   29.5  13.8   +8.8  288.8

      9  19 31.23  -09 51.6  1.677  0.961   17.1/ 97   30.1  13.9   +9.1  289.1

     10  19 32.37  -09 53.6  1.690  0.981   16.8/ 97   30.8  14.0   +9.5  289.4

NAKANO

         **** Don't distribute anyone except personal use only ****

                (C) Copyright 2002 OAA/ComputingSection

write mail from CFAD0::NAKANO on 2002-01-15 23:31:56(JST).

 

◎96P/Machholz 1の軌道です



  96P/Machholz 1 

Epoch 2002 Jan. 6.0 TT = JDT 2452280.5  

T 2002 Jan. 8.63406 TT                                  Nakano

q   0.1241051            (2000.0)            P               Q

n   0.18844369     Peri.   14.58068     -0.20251439     -0.45938198

a   3.0131099      Node    94.60846     +0.78895240     -0.59970841

e   0.9588116      Incl.   60.18665     +0.58012243     +0.65522363

P   5.23

From 104 observations 1986-1997, mean residual 0".90.

NAKANO

write mail from CFAD0::NAKANO on 1998-07-28 02:24:08(JST).

 





戻ります。